This demonstration page uses our WeatherBlox Daily Observations layout. Learn more.

Hourly Observations for March 16, 2019

Temp ( °F °C ) Dew Point ( °F °C ) Humidity (%) Winds ( mph kmh ) Pressure ( in mb ) Visibility ( mi km ) Precip ( " mm )
12:15 am 00:15 Clear 33 0.5 26 -3.5 75 75 SSW 7 11 30.42 1030 10 16.0934 0 0
12:35 am 00:35 Clear 33 0.7 26 -3.5 74 74 S 7 11 30.42 1030 10 16.0934 0 0
12:55 am 00:55 Clear 33 0.6 26 -3.5 74 74 SSW 7 11 30.42 1030 10 16.0934 0 0
1:15 am 01:15 Clear 33 0.5 26 -3.3 76 76 S 7 11 30.41 1030 10 16.0934 0 0
1:35 am 01:35 Clear 32 0.2 26 -3.2 78 78 S 7 11 30.41 1030 10 16.0934 0 0
1:55 am 01:55 Clear 32 -0.1 26 -3.1 80 80 SSW 7 11 30.42 1030 10 16.0934 0 0
2:15 am 02:15 Clear 32 0 27 -3 80 80 SSW 7 11 30.41 1030 10 16.0934 0 0
2:35 am 02:35 Clear 31 -0.3 26 -3.1 82 82 SW 7 11 30.41 1030 10 16.0934 0 0
2:55 am 02:55 Clear 31 -0.5 26 -3.2 82 82 SW 5 7 30.41 1030 10 16.0934 0 0
3:15 am 03:15 Clear 31 -0.3 26 -3.1 82 82 SW 5 7 30.41 1030 10 16.0934 0 0
3:35 am 03:35 Clear 31 -0.7 26 -3.3 83 83 WSW 3 6 30.41 1030 10 16.0934 0 0
3:55 am 03:55 Clear 31 -0.5 26 -3.5 80 80 WSW 5 7 30.41 1030 10 16.0934 0 0
4:15 am 04:15 Clear 31 -0.5 25 -3.7 79 79 W 5 7 30.4 1029 10 16.0934 0 0
4:35 am 04:35 Clear 31 -0.3 25 -3.7 78 78 W 6 9 30.4 1029 10 16.0934 0 0
4:55 am 04:55 Clear 31 -0.5 25 -3.7 79 79 W 5 7 30.4 1029 10 16.0934 0 0
5:15 am 05:15 Clear 31 -0.8 25 -4 79 79 W 5 7 30.4 1030 10 16.0934 0 0
5:35 am 05:35 Clear 30 -1.1 25 -4.1 80 80 W 7 11 30.41 1030 10 16.0934 0 0
5:55 am 05:55 Clear 32 -0.2 25 -4 76 76 W 9 15 30.4 1029 10 16.0934 0 0
6:15 am 06:15 Clear 32 0 25 -3.9 75 75 W 10 17 30.4 1029 10 16.0934 0 0
6:35 am 06:35 Clear 31 -0.4 25 -4 77 77 W 9 15 30.41 1030 10 16.0934 0 0
6:55 am 06:55 Clear 32 0.2 25 -3.8 75 75 W 8 13 30.4 1030 10 16.0934 0 0
7:15 am 07:15 Clear 32 0 25 -3.7 76 76 W 9 15 30.42 1030 10 16.0934 0 0
7:35 am 07:35 Clear 30 -1.2 25 -4 82 82 W 7 11 30.43 1030 10 16.0934 0 0
7:55 am 07:55 Sunny 30 -1.1 25 -3.8 82 82 W 6 9 30.44 1031 10 16.0934 0 0
8:15 am 08:15 Sunny 31 -0.5 25 -3.8 79 79 W 7 11 30.43 1030 10 16.0934 0 0
8:35 am 08:35 Sunny 32 0 26 -3.5 78 78 W 5 7 30.44 1031 10 16.0934 0 0
8:55 am 08:55 Sunny 33 0.4 27 -3 78 78 W 6 9 30.43 1031 10 16.0934 0 0
9:15 am 09:15 Sunny 34 1 27 -2.8 76 76 W 7 11 30.43 1030 10 16.0934 0 0
9:35 am 09:35 Sunny 35 1.6 28 -2.4 75 75 WNW 6 9 30.43 1030 10 16.0934 0 0
9:55 am 09:55 Sunny 36 2.1 29 -1.6 77 77 NW 8 13 30.43 1030 10 16.0934 0 0
10:15 am 10:15 Sunny 37 2.9 31 -0.8 77 77 NW 7 11 30.42 1030 10 16.0934 0 0
10:35 am 10:35 Sunny 39 4 30 -1 70 70 NW 8 13 30.42 1030 10 16.0934 0 0
10:55 am 10:55 Sunny 40 4.5 31 -0.8 69 69 NW 9 15 30.41 1030 10 16.0934 0 0
11:15 am 11:15 Sunny 40 4.5 31 -0.6 70 70 NW 10 17 30.41 1030 10 16.0934 0 0
11:35 am 11:35 Sunny 41 5 31 -0.8 66 66 NNW 9 15 30.42 1030 10 16.0934 0 0
11:55 am 11:55 Sunny 41 5 31 -0.5 68 68 NW 9 15 30.42 1030 10 16.0934 0 0
12:15 pm 12:15 Sunny 42 5.3 32 -0.1 68 68 NW 8 13 30.42 1030 10 16.0934 0 0
12:35 pm 12:35 Sunny 42 5.8 32 0 67 67 NNW 7 11 30.41 1030 10 16.0934 0 0
12:55 pm 12:55 Sunny 43 6.2 32 0.2 66 66 NW 8 13 30.41 1030 10 16.0934 0 0
1:15 pm 13:15 Sunny 44 6.7 33 0.7 66 66 NW 6 9 30.39 1029 10 16.0934 0 0
1:35 pm 13:35 Sunny 45 7.2 33 0.3 62 62 NNW 6 9 30.39 1029 10 16.0934 0 0
1:55 pm 13:55 Sunny 47 8.4 31 -0.3 55 55 N 8 13 30.37 1028 10 16.0934 0 0
2:15 pm 14:15 Sunny 47 8.5 32 0.1 56 56 NNW 7 11 30.37 1028 10 16.0934 0 0
2:35 pm 14:35 Sunny 48 8.9 32 0 54 54 NW 8 13 30.35 1028 10 16.0934 0 0
2:55 pm 14:55 Sunny 48 9.1 32 0.2 54 54 NW 6 9 30.35 1028 10 16.0934 0 0
3:15 pm 15:15 Sunny 48 9.1 31 -0.3 52 52 N 6 9 30.34 1027 10 16.0934 0 0
3:35 pm 15:35 Sunny 49 9.4 32 0.1 53 53 NW 8 13 30.33 1027 10 16.0934 0 0
3:55 pm 15:55 Sunny 50 9.9 33 0.5 52 52 NW 7 11 30.32 1027 10 16.0934 0 0
4:15 pm 16:15 Sunny 50 10 32 -0.2 49 49 NNW 6 9 30.31 1027 10 16.0934 0 0
4:35 pm 16:35 Sunny 50 10.1 32 -0.1 49 49 N 9 15 30.31 1026 10 16.0934 0 0
4:55 pm 16:55 Sunny 50 10.2 31 -0.5 48 48 NW 10 17 30.31 1026 10 16.0934 0 0
5:15 pm 17:15 Sunny 50 10.2 31 -0.5 48 48 NW 8 13 30.3 1026 10 16.0934 0 0
5:35 pm 17:35 Sunny 51 10.4 30 -1 45 45 N 7 11 30.3 1026 10 16.0934 0 0
5:55 pm 17:55 Sunny 50 10.1 33 0.6 52 52 N 8 13 30.3 1026 10 16.0934 0 0
6:15 pm 18:15 Sunny 50 10 32 0.1 51 51 N 9 15 30.3 1026 10 16.0934 0 0
6:35 pm 18:35 Sunny 49 9.6 30 -0.9 48 48 N 8 13 30.31 1026 10 16.0934 0 0
6:55 pm 18:55 Partly Cloudy 48 8.7 33 0.6 57 57 N 7 11 30.31 1027 10 16.0934 0 0
7:15 pm 19:15 Sunny 46 7.5 35 1.5 66 66 NNE 7 11 30.34 1027 10 16.0934 0 0
7:35 pm 19:35 Sunny 43 5.9 34 1.2 72 72 NNE 8 13 30.36 1028 10 16.0934 0 0
7:55 pm 19:55 Clear 40 4.5 33 0.5 76 76 NNE 8 13 30.37 1029 10 16.0934 0 0
8:15 pm 20:15 Clear 38 3.6 32 0 78 78 NNE 7 11 30.39 1029 10 16.0934 0 0
8:35 pm 20:35 Clear 37 2.9 31 -0.4 79 79 NNE 7 11 30.4 1029 10 16.0934 0 0
8:55 pm 20:55 Clear 36 2.2 31 -0.5 83 83 NE 7 11 30.41 1030 10 16.0934 0 0
9:15 pm 21:15 Clear 36 2.2 30 -1 80 80 NNE 7 11 30.41 1030 10 16.0934 0 0
9:35 pm 21:35 Clear 35 1.5 30 -1.3 82 82 NNE 7 11 30.42 1030 10 16.0934 0 0
9:55 pm 21:55 Clear 34 1.2 29 -1.5 82 82 NNE 5 7 30.43 1031 10 16.0934 0 0
10:15 pm 22:15 Clear 34 0.9 29 -1.4 85 85 NNE 6 9 30.44 1031 10 16.0934 0 0
10:35 pm 22:35 Clear 33 0.4 29 -1.8 85 85 NNE 5 7 30.44 1031 10 16.0934 0 0
10:55 pm 22:55 Clear 33 0.8 27 -2.7 78 78 NE 5 7 30.45 1031 10 16.0934 0 0
11:15 pm 23:15 Clear 33 0.5 26 -3.2 77 77 NNE 7 11 30.45 1031 10 16.0934 0 0
11:35 pm 23:35 Clear 32 0.1 27 -3 80 80 NNE 5 7 30.46 1031 10 16.0934 0 0
11:55 pm 23:55 Clear 31 -0.5 27 -3 83 83 NNE 5 7 30.46 1032 10 16.0934 0 0

Powered by AerisWeather